FW3938 Weather Reports


Display with metric or nautical units.
time (UTC)temp
F
wind
direction
speed
MPH
gust
MPH
rain 1hr
in
rain 24hr
in
rain mn
in
humidity
%
barometer
mb
20260508134553 61 360 0.0 3.0 0.00 0.13 0.00 81 997.1
20260508133109 58 360 0.0 2.0 0.00 0.13 0.00 86 997.0
20260508131539 55 360 0.0 1.0 0.00 0.13 0.00 96 997.1
20260508130038 52 360 0.0 2.0 0.00 0.13 0.00 96 996.9
20260508124536 50 360 1.0 3.0 0.00 0.26 0.00 96 996.6
20260508123036 50 360 0.0 3.0 0.00 0.26 0.00 96 996.5
20260508121537 49 360 0.0 1.0 0.00 0.26 0.00 95 996.4
20260508120032 48 360 0.0 0.0 0.00 0.26 0.00 95 996.3
20260508114531 48 360 0.0 1.0 0.00 0.27 0.00 95 996.0
20260508113030 48 360 0.0 0.0 0.00 0.27 0.00 95 995.8
20260508111527 48 360 0.0 0.0 0.00 0.27 0.00 95 995.6
20260508110043 49 360 0.0 0.0 0.00 0.27 0.00 95 995.4
20260508104521 49 360 0.0 0.0 0.00 0.27 0.00 94 995.0
20260508103020 50 360 0.0 0.0 0.00 0.27 0.00 95 994.7
20260508101517 50 360 0.0 0.0 0.00 0.27 0.00 95 994.4
20260508100020 50 360 0.0 0.0 0.00 0.27 0.00 95 994.3
20260508094514 50 360 0.0 0.0 0.00 0.28 0.00 94 994.3
20260508093014 51 360 0.0 0.0 0.00 0.28 0.00 94 994.1
20260508091513 51 360 0.0 0.0 0.00 0.28 0.00 95 994.1
20260508090022 51 360 0.0 0.0 0.00 0.28 0.00 95 994.0
20260508084508 51 360 0.0 0.0 0.00 0.34 0.00 95 993.9
20260508083008 51 360 0.0 0.0 0.00 0.34 0.00 95 993.7
20260508081606 51 360 0.0 0.0 0.00 0.34 0.00 95 993.6
20260508080006 51 360 0.0 0.0 0.00 0.34 0.00 94 993.4
20260508074510 51 360 0.0 0.0 0.00 0.48 0.00 94 993.3
20260508073000 51 360 0.0 0.0 0.00 0.48 0.00 94 993.2
20260508071605 52 360 0.0 0.0 0.00 0.48 0.00 94 993.2
20260508070058 52 360 0.0 0.0 0.00 0.48 0.00 94 993.1
20260508064556 52 360 0.0 0.0 0.00 0.65 0.00 94 993.1
20260508063055 53 360 0.0 0.0 0.00 0.65 0.00 94 993.1
20260508061553 53 360 0.0 0.0 0.00 0.65 0.00 94 993.2
20260508060052 53 360 0.0 0.0 0.00 0.65 0.00 94 993.2
20260508054551 54 360 0.0 0.0 0.00 0.78 0.00 94 993.2
20260508053113 54 360 0.0 0.0 0.00 0.78 0.00 94 993.1
20260508051547 54 360 0.0 0.0 0.00 0.78 0.00 94 993.2
20260508050045 54 360 0.0 0.0 0.00 0.78 0.00 94 992.9
20260508044543 54 360 0.0 0.0 0.00 0.79 0.00 94 992.8
20260508043040 55 360 0.0 0.0 0.00 0.79 0.00 94 992.7
20260508041604 55 360 0.0 0.0 0.00 0.79 0.00 94 992.8
20260508040042 55 360 0.0 0.0 0.00 0.79 0.00 94 992.6
20260508034535 56 360 0.0 0.0 0.00 1.00 0.79 94 992.7
20260508033033 56 360 0.0 0.0 0.00 1.00 0.79 94 992.8
20260508031536 56 360 0.0 0.0 0.00 1.00 0.79 94 992.6
20260508030035 56 360 0.0 0.0 0.00 1.00 0.79 94 992.6
20260508024531 56 360 0.0 0.0 0.00 1.25 0.79 94 992.5
20260508023027 56 360 0.0 0.0 0.00 1.25 0.79 94 992.3
20260508021525 56 360 0.0 0.0 0.00 1.25 0.79 94 992.1
20260508020030 57 360 0.0 0.0 0.00 1.25 0.79 93 991.9
20260508014520 57 360 0.0 0.0 0.00 1.35 0.79 94 991.4
20260508013018 57 360 0.0 0.0 0.00 1.35 0.79 93 991.6
20260508011518 57 360 0.0 0.0 0.00 1.35 0.79 93 991.2
20260508010018 57 360 0.0 1.0 0.00 1.35 0.79 93 991.0
20260508004517 58 360 0.0 3.0 0.00 1.35 0.79 93 990.9
20260508003014 58 360 1.0 3.0 0.01 1.35 0.79 93 990.1
20260508001513 58 360 0.0 3.0 0.07 1.35 0.79 92 989.8
20260508000012 58 360 0.0 4.0 0.07 1.35 0.79 92 989.5
20260507234511 59 360 0.0 3.0 0.07 1.35 0.79 91 989.0
20260507233022 59 360 1.0 5.0 0.05 1.33 0.77 90 989.2
20260507231507 60 360 1.0 5.0 0.00 1.28 0.72 89 988.2
20260507230005 60 360 3.0 10.0 0.00 1.28 0.72 88 988.5
20260507224503 61 360 1.0 12.0 0.00 1.28 0.72 88 988.3
20260507223103 62 360 1.0 8.0 0.00 1.28 0.72 86 988.1
20260507221557 65 360 4.0 11.0 0.00 1.28 0.72 82 987.8
20260507220056 69 360 2.0 9.0 0.00 1.28 0.72 76 987.6
20260507214606 73 360 2.0 9.0 0.00 1.28 0.72 71 987.0
20260507213103 75 360 0.0 4.0 0.00 1.28 0.72 79 985.4
20260507211550 76 360 1.0 3.0 0.00 1.28 0.72 74 985.6
20260507210050 76 360 1.0 8.0 0.00 1.28 0.72 73 985.8
20260507204541 76 360 1.0 5.0 0.00 1.28 0.72 73 985.9
20260507203042 75 360 0.0 3.0 0.00 1.28 0.72 74 986.0
20260507201537 75 355 1.0 7.0 0.00 1.28 0.72 76 986.0
20260507200030 74 360 2.0 5.0 0.00 1.28 0.72 78 986.0
20260507194545 74 360 2.0 4.0 0.00 1.28 0.72 80 986.4
20260507193028 73 360 1.0 5.0 0.00 1.28 0.72 83 986.7
20260507191531 72 360 1.0 5.0 0.00 1.28 0.72 84 986.8
20260507190021 72 360 0.0 3.0 0.00 1.28 0.72 85 987.0
20260507184518 71 360 1.0 3.0 0.00 1.34 0.72 89 986.9
20260507183029 70 360 2.0 6.0 0.00 1.34 0.72 89 987.0
20260507181512 69 360 2.0 6.0 0.00 1.34 0.72 92 987.0
20260507180015 69 360 1.0 5.0 0.00 1.34 0.72 95 987.5
20260507174508 68 360 2.0 5.0 0.00 1.36 0.72 96 987.9
20260507173007 68 360 0.0 1.0 0.00 1.36 0.72 96 987.6
20260507171507 68 360 1.0 3.0 0.00 1.36 0.72 96 987.9
20260507170007 68 360 1.0 4.0 0.00 1.36 0.72 97 987.7
20260507164505 68 360 1.0 3.0 0.00 1.36 0.72 97 988.0
20260507163004 67 360 0.0 3.0 0.00 1.36 0.72 97 988.5
20260507161504 68 360 0.0 2.0 0.01 1.36 0.72 97 988.3
20260507160005 68 360 1.0 2.0 0.01 1.36 0.72 97 987.8
20260507154503 67 360 0.0 2.0 0.02 1.36 0.72 97 986.9
20260507153102 67 360 0.0 2.0 0.04 1.36 0.72 97 987.2
20260507151601 67 360 0.0 3.0 0.04 1.35 0.71 97 987.5
20260507150101 67 360 0.0 0.0 0.04 1.35 0.71 97 988.5
20260507144601 66 360 0.0 0.0 0.03 1.34 0.70 96 988.7
20260507143104 66 360 0.0 2.0 0.01 1.32 0.68 96 988.9
20260507141628 66 360 0.0 1.0 0.00 1.31 0.67 97 988.6
20260507140053 66 360 1.0 3.0 0.00 1.31 0.67 97 988.2